Location: ?????
(31.8092°N, 35.2590°E)
Time: 20:39:27
(UTC+00:00)

COSMOS 2428 - Pass Details

Date: 20 June 2021
Orbit: 844 x 858 km, 70.9° (Epoch: 23 July)

Event Time Altitude Azimuth Distance (km) Brightness Sun altitude
Exits shadow 17:45:21 14° 116° (ESE) 2,203 4.2 -11.2°
Maximum altitude 17:46:50 15° 99° (E) 2,123 4.3 -11.4°
Drops below altitude 10° 17:50:02 10° 64° (ENE) 2,490 4.9 -12.0°
Sets 17:53:31 0° 43° (NE) 3,432 5.8 -12.6°
